Abbotsford, British Columbia

8:43 PM PDT on July 27, 2017 (GMT -0700)
Abbotsford

Weather History for CYXX - July, 2013

Change the Weather History Date:

Wednesday, July 10, 2013

  Actual Average Record
Temperature  
Mean Temperature 63 °F -  
Max Temperature 72 °F 74 °F 93 °F (2007)
Min Temperature 54 °F 52 °F 48 °F (1996)
Degree Days  
Heating Degree Days 2    
Growing Degree Days 13 (Base 50)    
Moisture  
Dew Point 52 °F    
Average Humidity 68    
Maximum Humidity 94    
Minimum Humidity 46    
Precipitation  
Precipitation 0.00 in 0.07 in - ()
Sea Level Pressure  
Sea Level Pressure 30.00 in    
Wind  
Wind Speed 8 mph ()    
Max Wind Speed 17 mph    
Max Gust Speed 23 mph    
Visibility 15.0 miles    
Events      
Averages and records for this station are not official NWS values.
T = Trace of Precipitation, MM = Missing Value Source: Averaged Metar Reports

Daily Weather History Graph

Daily Weather History Graph

Search for Another Location

Airport or City:

Trip Planner

Search our weather history database for the weather conditions in past years. The results will help you decide how hot, cold, wet, or windy it might be!

Date:

Astronomy

Jul. 10, 2013 Rise Set
Actual Time 5:16 AM PDT 9:12 PM PDT
Civil Twilight 4:35 AM PDT 9:53 PM PDT
Nautical Twilight 3:37 AM PDT 10:51 PM PDT
Astronomical Twilight 2:02 AM PDT 12:24 AM PDT
Moon 8:00 AM PDT (7/10) 10:04 PM PDT (7/10)
Length of Visible Light 17h 18m
Length of Day
15h 55m
Waxing Crescent, 6% of the Moon is Illuminated
Jul 10
Waxing Crescent
Jul 15
First Quarter
Jul 22
Full
Jul 29
Last Quarter
Aug 6
New

Hourly Weather History & Observations

Time (PDT) Temp. Dew Point Humidity Pressure Visibility Wind Dir Wind Speed Gust Speed Precip Events Conditions
12:00 AM 62.6 °F 53.6 °F 72% 30.00 in 15.0 mi West 3.5 mph - N/A   Clear
1:00 AM 59.0 °F 51.8 °F 77% 30.00 in 15.0 mi West 8.1 mph - N/A   Clear
2:00 AM 59.0 °F 53.6 °F 82% 30.01 in 15.0 mi WSW 5.8 mph - N/A   Clear
3:00 AM 57.2 °F 53.6 °F 88% 30.01 in 15.0 mi West 4.6 mph - N/A   Clear
4:00 AM 57.2 °F 51.8 °F 82% 30.00 in 30.0 mi WSW 4.6 mph - N/A   Partly Cloudy
5:00 AM 56 °F 53 °F 84% 30.02 in 28 mi West 5.8 mph - -   Partly Cloudy
5:00 AM 57.2 °F 51.8 °F 82% 30.01 in 30.0 mi West 6.9 mph - N/A   Scattered Clouds
6:00 AM 55.4 °F 53.6 °F 94% 30.02 in 30.0 mi West 3.5 mph - N/A   Partly Cloudy
7:00 AM 57.2 °F 53.6 °F 88% 30.02 in 30.0 mi NW 3.5 mph - N/A   Scattered Clouds
8:00 AM 59.0 °F 53.6 °F 82% 30.03 in 30.0 mi WSW 9.2 mph - N/A   Mostly Cloudy
9:00 AM 62.6 °F 55.4 °F 77% 30.04 in 30.0 mi SW 6.9 mph - N/A   Scattered Clouds
10:00 AM 66.2 °F 55.4 °F 68% 30.04 in 30.0 mi SSW 12.7 mph - N/A   Mostly Cloudy
11:00 AM 67 °F 56 °F 59% 30.04 in 28 mi SW 11.5 mph - -   Scattered Clouds
11:00 AM 68.0 °F 55.4 °F 64% 30.04 in 30.0 mi SW 13.8 mph - N/A   Scattered Clouds
12:00 PM 68.0 °F 57.2 °F 68% 30.04 in 30.0 mi SW 15.0 mph - N/A   Scattered Clouds
1:00 PM 69.8 °F 55.4 °F 60% 30.03 in 30.0 mi WSW 17.3 mph - N/A   Scattered Clouds
2:00 PM 69.8 °F 55.4 °F 60% 30.02 in 30.0 mi SW 11.5 mph 18.4 mph N/A   Scattered Clouds
3:00 PM 71.6 °F 55.4 °F 57% 30.01 in 30.0 mi SSW 13.8 mph - N/A   Partly Cloudy
4:00 PM 71.6 °F 55.4 °F 57% 30.00 in 30.0 mi SSW 17.3 mph 23.0 mph N/A   Scattered Clouds
5:00 PM 69 °F 54 °F 48% 29.99 in 28 mi SSW 17.3 mph - -   Scattered Clouds
5:00 PM 69.8 °F 53.6 °F 56% 29.99 in 30.0 mi SSW 16.1 mph 23.0 mph N/A   Scattered Clouds
6:00 PM 68.0 °F 53.6 °F 60% 29.97 in 30.0 mi SW 12.7 mph 18.4 mph N/A   Partly Cloudy
7:00 PM 68.0 °F 48.2 °F 49% 29.95 in 30.0 mi South 12.7 mph 19.6 mph N/A   Partly Cloudy
8:00 PM 66.2 °F 44.6 °F 46% 29.94 in 30.0 mi SSW 10.4 mph - N/A   Partly Cloudy
9:00 PM 62.6 °F 44.6 °F 52% 29.94 in 30.0 mi SSW 13.8 mph - N/A   Partly Cloudy
10:00 PM 59.0 °F 46.4 °F 63% 29.94 in 15.0 mi SSW 8.1 mph - N/A   Scattered Clouds
11:00 PM 59 °F 47 °F 53% 29.94 in 15 mi SSW 9.2 mph - -   Mostly Cloudy
11:00 PM 59.0 °F 46.4 °F 63% 29.94 in 15.0 mi SSW 9.2 mph - N/A   Mostly Cloudy